Weather History for KMTV - October, 2013

Change the Weather History Date:

Sunday, October 20, 2013

  Actual Average (KGSO) Record (KGSO)
Temperature  
Mean Temperature 50 °F 58 °F  
Max Temperature 64 °F 69 °F 86 °F (1924)
Min Temperature 37 °F 47 °F 25 °F (1972)
Degree Days  
Heating Degree Days 14 7  
Month to date heating degree days 103  
Since 1 July heating degree days 134  
Cooling Degree Days 0 1  
Month to date cooling degree days 29  
Year to date cooling degree days 1476  
Moisture  
Dew Point 38 °F    
Average Humidity 72    
Maximum Humidity 99    
Minimum Humidity 32    
Precipitation  
Precipitation 0.00 in 0.09 in 2.43 in (1976)
Month to date precipitation 2.00  
Year to date precipitation 34.98  
Sea Level Pressure  
Sea Level Pressure 30.08 in    
Wind  
Wind Speed 3 mph (North)    
Max Wind Speed 10 mph    
Max Gust Speed -    
Visibility 10 miles    
Events      
T = Trace of Precipitation, MM = Missing Value Source: NWS Daily Summary

Daily Weather History Graph

Daily Weather History Graph

Search for Another Location

Airport or City:

Trip Planner

Search our weather history database for the weather conditions in past years. The results will help you decide how hot, cold, wet, or windy it might be!

Date:

Astronomy

Oct. 20, 2013 Rise Set
Actual Time 7:32 AM EDT 6:36 PM EDT
Civil Twilight 7:05 AM EDT 7:03 PM EDT
Nautical Twilight 6:35 AM EDT 7:33 PM EDT
Astronomical Twilight 6:05 AM EDT 8:03 PM EDT
Moon 7:47 PM EDT (10/20) 9:05 AM EDT (10/20)
Length of Visible Light 11h 57m
Length of Day
11h 04m
Full, 97% of the Moon is Illuminated
Oct 20
Full
Oct 26
Last Quarter
Nov 3
New
Nov 10
First Quarter
Nov 17
Full

Hourly Weather History & Observations

Time (EDT) Temp. Windchill Dew Point Humidity Pressure Visibility Wind Dir Wind Speed Gust Speed Precip Events Conditions
12:15 AM 47.5 °F - 47.1 °F 99% 29.97 in 7.0 mi Calm Calm - N/A   Scattered Clouds
12:35 AM 45.7 °F - 45.1 °F 98% 29.97 in 3.0 mi Calm Calm - N/A   Clear
12:55 AM 45.1 °F - 44.6 °F 98% 29.97 in 1.0 mi Calm Calm - N/A   Mist
1:15 AM 44.4 °F - 43.9 °F 98% 29.98 in 5.0 mi Calm Calm - N/A   Clear
1:35 AM 44.2 °F 41.0 °F 43.7 °F 98% 29.98 in 5.0 mi NW 5.8 mph - N/A   Clear
1:55 AM 48.6 °F - 46.2 °F 92% 29.99 in 10.0 mi NNW 8.1 mph - N/A   Clear
2:15 AM 48.6 °F - 45.0 °F 87% 30.00 in 10.0 mi NNW 8.1 mph - N/A   Clear
2:35 AM 48.4 °F - 43.7 °F 84% 30.01 in 10.0 mi NNW 10.4 mph - N/A   Clear
2:55 AM 48.9 °F - 42.1 °F 77% 30.01 in 10.0 mi NNW 10.4 mph - N/A   Clear
3:15 AM 48.4 °F - 41.4 °F 77% 30.02 in 10.0 mi North 8.1 mph - N/A   Clear
3:35 AM 47.8 °F - 40.6 °F 76% 30.02 in 10.0 mi NNW 8.1 mph - N/A   Clear
3:55 AM 45.7 °F 43.4 °F 39.7 °F 80% 30.03 in 10.0 mi NW 4.6 mph - N/A   Clear
4:15 AM 43.3 °F 41.7 °F 39.2 °F 85% 30.03 in 10.0 mi NW 3.5 mph - N/A   Clear
4:35 AM 40.5 °F 37.3 °F 38.5 °F 93% 30.03 in 10.0 mi NW 4.6 mph - N/A   Clear
4:55 AM 40.5 °F - 37.9 °F 91% 30.04 in 10.0 mi Calm Calm - N/A   Clear
5:15 AM 38.7 °F 35.2 °F 37.0 °F 94% 30.05 in 10.0 mi NW 4.6 mph - N/A   Clear
5:35 AM 41.0 °F - 37.6 °F 88% 30.05 in 10.0 mi Calm Calm - N/A   Clear
5:55 AM 38.5 °F - 36.7 °F 93% 30.05 in 10.0 mi Calm Calm - N/A   Clear
6:15 AM 37.9 °F - 36.9 °F 96% 30.06 in 10.0 mi Calm Calm - N/A   Clear
6:35 AM 37.0 °F 33.3 °F 36.0 °F 96% 30.05 in 10.0 mi NNW 4.6 mph - N/A   Clear
6:55 AM 37.9 °F 32.7 °F 36.1 °F 93% 30.06 in 10.0 mi NNW 6.9 mph - N/A   Clear
7:15 AM 41.4 °F 38.4 °F 36.0 °F 81% 30.06 in 10.0 mi NNW 4.6 mph - N/A   Clear
7:35 AM 39.4 °F - 36.0 °F 88% 30.07 in 10.0 mi Calm Calm - N/A   Clear
7:55 AM 39.7 °F 36.5 °F 35.8 °F 86% 30.08 in 10.0 mi NNW 4.6 mph - N/A   Clear
8:15 AM 43.2 °F 40.5 °F 36.3 °F 77% 30.08 in 10.0 mi North 4.6 mph - N/A   Clear
8:35 AM 44.6 °F 42.2 °F 37.4 °F 76% 30.09 in 10.0 mi NNW 4.6 mph - N/A   Clear
8:55 AM 46.8 °F - 38.1 °F 72% 30.10 in 10.0 mi Calm Calm - N/A   Clear
9:15 AM 48.4 °F - 39.0 °F 70% 30.11 in 10.0 mi North 4.6 mph - N/A   Clear
9:35 AM 49.3 °F - 38.1 °F 65% 30.11 in 10.0 mi North 6.9 mph - N/A   Clear
9:55 AM 50.4 °F - 37.2 °F 61% 30.12 in 10.0 mi NNE 6.9 mph - N/A   Clear
10:15 AM 52.0 °F - 37.2 °F 57% 30.13 in 10.0 mi NNE 4.6 mph - N/A   Clear
10:35 AM 52.9 °F - 37.2 °F 55% 30.13 in 10.0 mi NE 3.5 mph - N/A   Clear
10:55 AM 54.1 °F - 38.7 °F 56% 30.13 in 10.0 mi NNE 3.5 mph - N/A   Clear
11:15 AM 54.7 °F - 36.7 °F 51% 30.13 in 10.0 mi ENE 5.8 mph - N/A   Clear
11:35 AM 56.1 °F - 36.1 °F 47% 30.13 in 10.0 mi NNE 5.8 mph - N/A   Clear
11:55 AM 57.2 °F - 36.3 °F 46% 30.13 in 10.0 mi Calm Calm - N/A   Clear
12:15 PM 57.6 °F - 36.3 °F 45% 30.13 in 10.0 mi ENE 4.6 mph - N/A   Clear
12:35 PM 58.3 °F - 35.1 °F 42% 30.13 in 10.0 mi Calm Calm - N/A   Clear
12:55 PM 59.9 °F - 35.2 °F 40% 30.13 in 10.0 mi East 6.9 mph - N/A   Clear
1:15 PM 60.8 °F - 33.3 °F 36% 30.11 in 10.0 mi Calm Calm - N/A   Clear
1:35 PM 62.2 °F - 35.8 °F 37% 30.10 in 10.0 mi East 3.5 mph - N/A   Clear
1:55 PM 62.2 °F - 35.6 °F 37% 30.10 in 10.0 mi North 4.6 mph - N/A   Clear
2:15 PM 62.8 °F - 36.3 °F 37% 30.09 in 10.0 mi Calm Calm - N/A   Clear
2:35 PM 63.3 °F - 34.9 °F 35% 30.08 in 10.0 mi SSE 3.5 mph - N/A   Clear
2:55 PM 64.0 °F - 35.6 °F 35% 30.08 in 10.0 mi ESE 5.8 mph - N/A   Clear
3:15 PM 64.4 °F - 33.6 °F 32% 30.08 in 10.0 mi Calm Calm - N/A   Clear
3:35 PM 64.4 °F - 34.2 °F 32% 30.07 in 7.0 mi Calm Calm - N/A   Clear
3:55 PM 64.4 °F - 34.0 °F 32% 30.07 in 10.0 mi Calm Calm - N/A   Clear
4:15 PM 64.4 °F - 34.3 °F 33% 30.08 in 10.0 mi SSW 3.5 mph - N/A   Clear
4:35 PM 64.6 °F - 34.9 °F 33% 30.08 in 10.0 mi SE 4.6 mph - N/A   Clear
4:55 PM 64.4 °F - 33.8 °F 32% 30.08 in 10.0 mi Calm Calm - N/A   Clear
5:15 PM 63.9 °F - 34.7 °F 34% 30.08 in 10.0 mi Calm Calm - N/A   Clear
5:35 PM 63.0 °F - 33.3 °F 33% 30.08 in 10.0 mi SSE 3.5 mph - N/A   Clear
5:55 PM 61.7 °F - 37.4 °F 41% 30.08 in 7.0 mi SE 3.5 mph - N/A   Clear
6:15 PM 57.2 °F - 44.1 °F 62% 30.09 in 10.0 mi Calm Calm - N/A   Clear
6:35 PM 51.6 °F - 45.0 °F 78% 30.09 in 10.0 mi Calm Calm - N/A   Clear
6:55 PM 49.1 °F - 44.1 °F 83% 30.10 in 10.0 mi Calm Calm - N/A   Clear
7:15 PM 47.3 °F - 43.2 °F 86% 30.10 in 10.0 mi Calm Calm - N/A   Clear
7:35 PM 45.7 °F - 42.3 °F 88% 30.10 in 10.0 mi Calm Calm - N/A   Clear
7:55 PM 44.6 °F - 41.9 °F 90% 30.11 in 10.0 mi Calm Calm - N/A   Clear
8:15 PM 43.3 °F - 41.2 °F 92% 30.11 in 10.0 mi Calm Calm - N/A   Clear
8:35 PM 42.6 °F - 40.6 °F 93% 30.12 in 10.0 mi Calm Calm - N/A   Clear
8:55 PM 41.5 °F - 39.9 °F 94% 30.12 in 10.0 mi Calm Calm - N/A   Clear
9:15 PM 41.4 °F - 40.1 °F 95% 30.13 in 10.0 mi Calm Calm - N/A   Clear
9:35 PM 40.8 °F - 39.7 °F 96% 30.13 in 10.0 mi Calm Calm - N/A   Clear
9:55 PM 41.2 °F - 39.9 °F 95% 30.14 in 10.0 mi Calm Calm - N/A   Clear
10:15 PM 39.9 °F - 39.0 °F 97% 30.14 in 10.0 mi Calm Calm - N/A   Clear
10:35 PM 39.2 °F - 38.1 °F 96% 30.15 in 10.0 mi Calm Calm - N/A   Clear
10:55 PM 39.0 °F - 38.3 °F 97% 30.15 in 10.0 mi Calm Calm - N/A   Clear
11:15 PM 38.3 °F - 37.4 °F 97% 30.15 in 10.0 mi Calm Calm - N/A   Clear
11:35 PM 37.9 °F - 37.4 °F 98% 30.15 in 7.0 mi Calm Calm - N/A   Clear
11:55 PM 37.0 °F - 36.3 °F 97% 30.15 in 10.0 mi Calm Calm - N/A   Clear